AirNav   Air Wisconsin pilot careers
 
 366 users online  

8V6 Dove Creek Airport
Dove Creek, Colorado, USA

GOING TO DOVE CREEK?


FAA INFORMATION EFFECTIVE 06 DECEMBER 2018

Location

FAA Identifier: 8V6
Lat/Long: 37-45-53.1000N / 108-53-19.1000W
37-45.885000N / 108-53.318333W
37.7647500 / -108.8886389
(estimated)
Elevation: 6975 ft. / 2126 m (estimated)
Variation: 13E (1985)
From city: 1 mile E of DOVE CREEK, CO
Time zone: UTC -7 (UTC -6 during Daylight Saving Time)
Zip code: 81324

Airport Operations

Airport use: Open to the public
Activation date: 10/1944
Control tower: no
ARTCC: DENVER CENTER
FSS: DENVER FLIGHT SERVICE STATION
NOTAMs facility: DEN (NOTAM-D service available)
Attendance: UNATNDD
Pattern altitude: 7700 ft. MSL
TPA 7700 MSL.
Wind indicator: yes
Segmented circle: no

Airport Communications

CTAF: 122.9

Nearby radio navigation aids

VOR radial/distance  VOR name  Freq  Var
DVCr129/3.3DOVE CREEK VORTAC114.6014E
CEZr311/27.3CORTEZ VOR/DME108.4014E
ETLr229/34.1CONES VOR/DME110.2012E

Airport Services

Parking: tiedowns
Bottled oxygen: NONE
Bulk oxygen: NONE

Runway Information

Runway 1/19

Dimensions: 4200 x 50 ft. / 1280 x 15 m
Surface: dirt, in fair condition
RODENT HOLES THROUGHOUT.
Operational restrictions: SOFT WHEN WET.
RUNWAY 1  RUNWAY 19
Latitude: 37-45.560500N37-46.208167N
Longitude: 108-53.471833W108-53.164167W
Elevation: 6975.0 ft.6932.0 ft.
Gradient: 1.9%1.0% UP
Traffic pattern: leftleft
Runway heading: 008 magnetic, 021 true188 magnetic, 201 true
Obstructions: 4 ft. fence15 ft. road, 75 ft. both sides of centerline

Airport Ownership and Management from official FAA records

Ownership: Privately-owned
Owner: DOVE CREEK AIRPORT INC
BOX 86
DOVE CREEK, CO 81324
Phone 970-677-2282
Manager: R A ANDERSON
BOX 86
DOVE CREEK, CO 81324
Phone 970-677-2282
CTC SHERIFFS DEPT BTN 0800-1200 FOR ASSISTANCE 970-677-2257.

Airport Operational Statistics

Aircraft based on the field: 5
Single engine airplanes: 4
Ultralights: 1
    
Aircraft operations: avg 42/month *
60% local general aviation
40% transient general aviation
* for 12-month period ending 31 December 2017

Additional Remarks

RY 19 +12 FT GND 258 FT R OF CNTRLN PARALLEL TO EXTDD CNTRLN FIRST 500 FT.
RY 01 HAS +15 FT ROAD, 80 FT FM & PARALLEL TO THLD; APCH RATION 0 : 1; +4 FT FENCE 0 FT FM & PARRALLEL TO THLD.
ARPT CLSD WHEN SNOW COVERED.
UNLIMITED VHICLE USE ON ARPT.
RY 01/19 HAS -3FT DITCH ALONG BOTH SIDES RY.
RY 01 +30 FT TREES 189 FT FM THLD 0B.
RY 01/19 HAS +4 FT BUSHES IN VARIOUS LOCATIONS 15 FT FM RY EDGE.

Instrument Procedures

There are no published instrument procedures at 8V6.

Some nearby airports with instrument procedures:

KBDG - Blanding Municipal Airport (30 nm W)
KCEZ - Cortez Municipal Airport (30 nm SE)
KAIB - Hopkins Field Airport (32 nm NE)
KTEX - Telluride Regional Airport (48 nm E)
KMTJ - Montrose Regional Airport (65 nm NE)
 
Loc | Ops | Rwys | IFR | FBO | Links
Com | Nav | Svcs | Stats | Notes


 
Area around 8V6 (Dove Creek Airport)
 
Road maps at: MapQuest Bing Google
 
Aerial photo
WARNING: Photo may not be current or correct
Aerial photo of 8V6 (Dove Creek Airport)
Do you have a better or more recent aerial photo of Dove Creek Airport that you would like to share? If so, please send us your photo.

 
Sectional chart

 
Airport distance calculator
Flying to Dove Creek Airport? Find the distance to fly.

From to 8V6

Sunrise and sunset
Times for 14-Dec-2018
 Local
(UTC-7)
 Zulu
(UTC)
Morning civil twilight06:5513:55
Sunrise07:2414:24
Sunset16:5623:56
Evening civil twilight17:2600:26

Current date and time
Zulu (UTC)  14-Dec-2018 09:21:02
Local (UTC-7)  14-Dec-2018 02:21:02
 
METAR
KBDG 
30nm W 
140855Z AUTO 02004KT 10SM M03/M11 A3044 RMK AO1 T10311113
KCEZ 
30nm SE 
140853Z AUTO 07004KT 10SM CLR M10/M14 A3039 RMK AO2 SLP309 T11001139 53001
KAIB 
32nm NE 
140855Z AUTO 10007KT 10SM CLR M07/M13 A3046 RMK AO2
KTEX 
48nm E 
140855Z AUTO 14007KT 10SM CLR M08/M11 A3040 RMK AO2
TAF
KTEX 
48nm E 
140534Z 1406/1506 VRB03KT P6SM SKC FM142000 28005KT P6SM SKC FM142300 21006KT P6SM FEW250 FM150100 18006KT P6SM FEW250 FM150300 15008KT P6SM FEW250
NOTAMs
Click for the latest NOTAMs
NOTAMs are issued by the DoD/FAA and will open in a separate window not controlled by AirNav.

 

 
 

Would you like to see your business listed on this page?

 If your business provides an interesting product or service to pilots, flight crews, aircraft, or users of the Dove Creek Airport, you should consider listing it here.  To start the listing process, click on the button below
 
Add a business
 

Other Pages about Dove Creek Airport

Update a link
 
Copyright © AirNav, LLC. All rights reserved. Privacy Policy  Contact